Location: Pedholt
(56.0260°N, 10.2097°E)
Time: 18:06:07
(UTC+00:00)

A-11 Canister half - Pass Details

Date: 30 July 2021
Orbit: 1515 x 1685 km, 47.2° (Epoch: 20 September)

Event Time Altitude Azimuth Distance (km) Brightness Sun altitude
Rises 19:39:47 0° 258° (WSW) 4,859 12.3 -1.9°
Reaches altitude 10° 19:42:59 10° 254° (WSW) 3,892 11.7 -2.2°
Maximum altitude 19:52:32 52° 182° (S) 2,002 9.4 -3.3°
Drops below altitude 10° 20:02:14 10° 110° (ESE) 3,950 10.6 -4.3°
Sets 20:05:30 0° 106° (ESE) 4,936 11.1 -4.6°
Enters shadow 20:05:33 - 106° (ESE) 4,952 11.1 -4.6°
